User: anonymous   Login
Location: Unspecified
(0.0000°N, 0.0000°E)
Time: 03:01:25
(UTC+00:00)
Language:

UFO 11 (USA 174) - Orbit

View from above orbital plane
View from above orbital plane
View from above satellite
View from above satellite

Ground track
Ground track

The orbit data is extracted from the following two-line orbital elements,

1 28117U 03057A   18091.36337499 0.00000000  00000-0  00000-0 0    00
2 28117   5.2628  35.8930 0005733 293.2787  66.6659  1.00270000    06
Epoch (UTC): 01 April 2018 08:43:15
Eccentricity: 0.0005733
inclination: 5.2628°
perigee height: 35762 km
apogee height: 35811 km
right ascension of ascending node: 35.8930°
argument of perigee: 293.2787°
revolutions per day: 1.00270000
mean anomaly at epoch: 66.6659°
orbit number at epoch: 0

The dashed part of the orbit path shows where the satellite is in the earth's shadow,  

DLR